FW4773 Weather Reports


Display with metric or nautical units.
time (UTC)temp
F
wind
direction
speed
MPH
gust
MPH
rain 1hr
in
rain 24hr
in
rain mn
in
humidity
%
barometer
mb
20260903170031 81 225 1.0 4.0 0.00 0.12 0.00 85 1019.1
20260903164526 80 209 1.0 6.0 0.00 0.12 0.00 86 1019.2
20260903163024 79 242 0.0 5.0 0.00 0.12 0.00 87 1019.7
20260903161526 80 219 0.0 4.0 0.00 0.12 0.00 87 1020.3
20260903160020 79 262 1.0 4.0 0.00 0.12 0.00 87 1020.9
20260903154516 79 306 0.0 3.0 0.00 0.12 0.00 87 1020.5
20260903153013 80 188 1.0 4.0 0.00 0.12 0.00 87 1020.0
20260903151507 79 161 2.0 4.0 0.00 0.12 0.00 88 1019.8
20260903150011 79 243 2.0 6.0 0.00 0.12 0.00 87 1019.9
20260903144507 79 225 3.0 6.0 0.00 0.12 0.00 88 1019.5
20260903143106 78 200 2.0 4.0 0.00 0.12 0.00 89 1019.7
20260903141608 77 211 1.0 5.0 0.00 0.12 0.00 90 1019.4
20260903140056 77 248 0.0 4.0 0.00 0.12 0.00 91 1019.4
20260903134551 77 212 2.0 6.0 0.00 0.12 0.00 91 1019.3
20260903133049 77 208 0.0 3.0 0.00 0.12 0.00 92 1019.9
20260903131601 76 201 0.0 1.0 0.00 0.12 0.00 93 1020.1
20260903130044 76 213 3.0 5.0 0.00 0.12 0.00 93 1020.4
20260903124536 76 41 0.0 1.0 0.00 0.12 0.00 94 1020.9
20260903123041 75 41 0.0 1.0 0.00 0.12 0.00 94 1021.0
20260903121550 75 41 0.0 2.0 0.00 0.12 0.00 94 1021.2
20260903120029 0 0.0 0.0 0.00 0.12 0.00 1021.3
20260903114524 0 0.0 0.0 0.00 0.12 0.00 1021.6
20260903113019 0 0.0 0.0 0.00 0.12 0.00 1021.2
20260903111514 0 0.0 0.0 0.00 0.12 0.00 1020.8
20260903110007 0 0.0 0.0 0.00 0.12 0.00 1020.6
20260903104504 0 0.0 0.0 0.00 0.12 0.00 1020.2
20260903103058 0 0.0 0.0 0.00 0.12 0.00 1019.9
20260903101554 0 0.0 0.0 0.00 0.12 0.00 1019.3
20260903100049 0 211 0.0 0.0 0.00 0.12 0.00 96 1019.3
20260903094542 73 210 0.0 0.0 0.00 0.12 0.00 96 1019.7
20260903093037 73 210 0.0 0.0 0.00 0.12 0.00 96 1019.7
20260903091535 73 210 0.0 0.0 0.00 0.12 0.00 96 1019.7
20260903090027 73 210 0.0 0.0 0.00 0.12 0.00 96 1019.7
20260903084520 73 210 0.0 0.0 0.00 0.12 0.00 96 1019.7
20260903083015 73 210 0.0 0.0 0.00 0.12 0.00 96 1019.8
20260903081510 73 210 0.0 0.0 0.00 0.12 0.00 96 1019.5
20260903080008 72 210 0.0 0.0 0.00 0.12 0.00 96 1019.6
20260903074507 72 210 0.0 0.0 0.00 0.12 0.00 96 1019.7
20260903073011 72 210 0.0 1.0 0.00 0.12 0.00 96 1019.7
20260903071502 72 210 0.0 1.0 0.00 0.12 0.00 96 1019.5
20260903064558 72 210 0.0 0.0 0.00 0.12 0.00 95 1019.4
20260903063057 72 210 0.0 0.0 0.00 0.12 0.00 95 1019.6
20260903061600 72 210 0.0 1.0 0.00 0.12 0.00 95 1019.6
20260903054546 72 184 0.0 1.0 0.00 0.12 0.00 96 1019.9
20260903053046 72 217 0.0 1.0 0.00 0.12 0.00 96 1019.9
20260903051542 72 217 0.0 0.0 0.00 0.12 0.00 95 1019.9
20260903050044 73 217 0.0 0.0 0.00 0.12 0.00 95 1020.0
20260903044534 73 217 0.0 0.0 0.00 0.12 0.00 96 1020.0
20260903043030 72 211 0.0 0.0 0.00 0.12 0.00 95 1020.1
20260903041524 72 211 0.0 0.0 0.00 0.12 0.00 96 1020.3
20260903040018 72 211 0.0 0.0 0.00 0.12 0.12 95 1020.3
20260903034516 72 211 0.0 0.0 0.00 0.12 0.12 95 1020.3
20260903033016 73 211 0.0 0.0 0.00 0.12 0.12 96 1020.3
20260903031512 72 4 0.0 0.0 0.00 0.12 0.12 95 1020.4
20260903030014 72 4 0.0 0.0 0.00 0.12 0.12 95 1020.4
20260903024508 72 4 0.0 0.0 0.00 0.12 0.12 95 1020.7
20260903023006 71 346 0.0 0.0 0.00 0.12 0.12 95 1020.8
20260903021504 71 11 0.0 0.0 0.00 0.12 0.12 95 1020.6
20260903020003 72 11 0.0 0.0 0.00 0.12 0.12 94 1020.5
20260903014630 72 11 0.0 0.0 0.00 0.12 0.12 94 1020.6
20260903013101 72 207 0.0 0.0 0.00 0.12 0.12 94 1020.2
20260903011607 72 3 0.0 0.0 0.00 0.12 0.12 94 1020.3
20260903010050 73 2 0.0 0.0 0.00 0.12 0.12 94 1020.6
20260903004549 72 2 0.0 0.0 0.00 0.12 0.12 93 1020.5
20260903003051 73 2 0.0 0.0 0.00 0.12 0.12 93 1019.9
20260903001543 73 2 0.0 0.0 0.00 0.12 0.12 93 1020.2
20260903000051 73 3 0.0 0.0 0.00 0.12 0.12 92 1020.2
20260902234542 73 2 0.0 0.0 0.00 0.12 0.12 92 1020.0
20260902233049 74 2 0.0 0.0 0.00 0.12 0.12 91 1020.2
20260902231538 74 2 0.0 0.0 0.00 0.12 0.12 90 1020.3
20260902230041 74 2 0.0 0.0 0.00 0.12 0.12 89 1020.5
20260902224532 75 49 0.0 0.0 0.00 0.12 0.12 91 1020.3
20260902223031 74 49 0.0 0.0 0.00 0.12 0.12 92 1020.2
20260902221529 74 49 0.0 0.0 0.00 0.12 0.12 92 1020.3
20260902220040 74 49 0.0 0.0 0.00 0.12 0.12 92 1020.8
20260902214541 74 14 0.0 0.0 0.00 0.12 0.12 92 1021.0
20260902213022 73 8 0.0 0.0 0.00 0.12 0.12 92 1020.9
20260902211619 73 8 0.0 0.0 0.00 0.12 0.12 92 1020.7
20260902210017 73 321 0.0 0.0 0.00 0.12 0.12 92 1021.0
20260902204515 73 8 0.0 1.0 0.00 0.12 0.12 92 1020.7
20260902203014 73 237 0.0 1.0 0.00 0.12 0.12 91 1020.5
20260902201528 73 224 0.0 1.0 0.00 0.12 0.12 91 1020.8
20260902200009 73 241 0.0 2.0 0.00 0.12 0.12 90 1021.1
20260902194507 73 213 2.0 3.0 0.00 0.12 0.12 91 1021.1
20260902193006 73 213 0.0 2.0 0.00 0.12 0.12 92 1021.1
20260902191509 72 18 0.0 0.0 0.00 0.12 0.12 93 1020.4
20260902190100 72 19 0.0 1.0 0.02 0.12 0.12 92 1020.6
20260902184605 72 268 0.0 2.0 0.09 0.12 0.12 92 1020.9
20260902183105 73 198 0.0 0.0 0.12 0.12 0.12 91 1021.4
20260902181556 72 198 0.0 1.0 0.12 0.12 0.12 90 1021.7
20260902180050 73 240 4.0 6.0 0.10 0.10 0.10 87 1022.7
20260902174553 77 65 7.0 22.0 0.03 0.03 0.03 80 1024.1
20260902173144 83 18 5.0 9.0 0.00 0.00 0.00 76 1023.6
20260902171543 84 26 2.0 6.0 0.00 0.00 0.00 75 1022.3